STARLINK-11287, 60998

Orbit data source: Space-Track

STARLINK-11287, 60998 is a payload satellite owned by SpaceX/Seattle (US) in LEO that was launched on Thu, 05 Sep 2024 UTC via an FALCON 9 launch vehicle from the Air Force Eastern Test Range (AFETR). Payload-class satellites include a variety of spacecraft equipped with specific instruments for various scientific and technological missions. These include communications satellites like Starlink; space stations such as the ISS; scientific satellites like the Hubble; Earth observation satellites from companies like Planet Labs, Umbra, and HawkEye 360; GPS; miniature CubeSats for education and research; and military/defense satellites.

Loading next visibility...
Identifier
60998, 2024-158J
Orbit
LEO
Country
Flag of USUS
Related business
Manufacturer
SpaceX/Seattle
Mission
Operational Commercial Communications
Bus & Motor
STARLINK V2MD, Unknown motor
Mass
960 kg wet, ~910 kg dry
Launch date (UTC)
2024-09-05 (2 years ago)
Launch vehicle
FALCON 9
Launch site
Air Force Eastern Test Range (AFETR)
Object type
Payload
Rocket body
Debris
Shape & HBR
Box + 2 Pan, 18.1 m
Radar Cross Section
36.964 m², Large (>1 m²)

Expand to show TLE details & history
Last TLE update: 1 day ago

TLE from 1 day ago
0 STARLINK-11287
1 60998U 24158J   26072.51471128  .00008027  00000-0  71167-4 0  9991
2 60998  53.1576 262.5324 0000767 111.2482 248.8618 15.69668309 88189
Epoch: 2026-03-13T12:21Z
TLE epoch observation values (Epoch: 2026-03-13T12:21:11.054Z)
Latitude
-0.00001°
Longitude
-93.91281°
Altitude
360.947 km
Speed
7.694 km/s
True Right ascension
17h 30m 07s
True Declination
0° 00' 00"
Sunlit
Object was in daylight at epoch
Visualization orbit readout
Latitude
Unknown
Longitude
Unknown
Altitude
Unknown
Speed
Unknown
Apparent Right ascension
Unknown
Apparent Declination
Unknown
Sunlit
N/A
Visualization observer readout
Local Sidereal Time
20:36:52
Azimuth
Unknown
Elevation
Unknown
Doppler factor
Unknown
Orbital elements
Apogee altitude
360.624 km
Perigee altitude
359.59 km
Semi-major axis
6,738.244 km
Eccentricity
0.00008
Inclination
53.1576°
RAAN
262.5324°
Arg. of periapsis
111.2482°
True anomaly
248.8536°
Mean anomaly
248.8618°
Eccentric anomaly
248.8577°
Mean motion
3.92395 °/min
Orbital period
91.74 mins
BSTAR
0.000071167
Loading maneuver chart data...
Computing Atmospheric mass density...
Loading historical data...
Loading historical data...
Loading historical data...
Loading historical data...
Loading historical data...
Loading historical data...
Loading historical data...

Documentation

Showing up to 5 results
|